OreSat0
1 52017U 22026K 24066.96357913 .00039550 00000-0 97865-3 0 9998
2 52017 97.5053 77.6927 0013688 217.9767 142.0515 15.40242646109911
Planetum 1
1 52738U 22057G 24066.90381866 .00028794 00000-0 91928-3 0 9992
2 52738 97.5529 190.1935 0005802 152.6222 207.5326 15.32428445 98861
Foresail-1
1 52766U 22057AL 24067.13596577 .00016885 00000-0 63370-3 0 9994
2 52766 97.5676 190.7200 0010826 128.9065 231.3141 15.27232820 98852
SNUGLITE 2
1 52899U 22065F 24067.11684373 .00001876 00000-0 39762-3 0 9992
2 52899 98.1008 210.3725 0008813 110.3768 249.8380 14.60310946 89361
IO-117
1 53106U 22080B 24064.84326825 -.00000003 00000-0 00000+0 0 9994
2 53106 70.1320 228.7693 0008270 127.5810 232.5602 6.42557706 38562
SelfieSat
1 53951U 22057BC 24066.85404216 .00045198 00000-0 11633-2 0 9990
2 53951 97.5563 192.3596 0005793 148.2329 211.9267 15.39088924 98978
FO-118
1 54684U 22167C 24067.16271310 .00023288 00000-0 96741-3 0 9998
2 54684 97.5893 210.1796 0011220 142.9094 217.2920 15.23764812 68737
SSS-2B
1 56184U 23054G 24067.13523363 .00023570 00000-0 73062-3 0 9991
2 56184 97.3830 324.7998 0008278 165.7096 194.4383 15.33392965 50460
CIRBE
1 56188U 23054L 24066.66243503 .00046717 00000-0 11980-2 0 9995
2 56188 97.3754 325.0493 0007472 150.5272 209.6397 15.39181867 50452
INSPIRE-Sat 7
1 56211U 23054AK 24066.68967717 .00047500 00000-0 11648-2 0 9996
2 56211 97.3795 326.0393 0011265 139.9767 220.2312 15.40506411 50510
RoseyCubesat 1
1 56212U 23054AL 24067.13751778 .00046683 00000-0 10813-2 0 9990
2 56212 97.3801 326.8357 0011308 136.0473 224.1675 15.42233130 50609
SO-120
1 56992U 23084BU 24067.13521814 .00021186 00000-0 94028-3 0 9996
2 56992 97.5195 186.0129 0014295 24.2152 335.9752 15.21499864 40639
MRC-100
1 56993U 23084BV 24066.81268984 .00028324 00000-0 12189-2 0 9995
2 56993 97.5198 185.8482 0013833 23.8347 336.3527 15.22496664 40608
UmKA 1 (RS40S)
1 57172U 23091G 24067.12995717 .00004890 00000-0 33799-3 0 9992
2 57172 97.6279 120.2535 0018996 108.2817 252.0479 15.06046507 38129
CubeBel-2 (EU11S)
1 57175U 23091K 24067.17474946 .00006780 00000-0 46514-3 0 9995
2 57175 97.6266 120.1830 0016879 120.0962 240.1941 15.06216915 38120
VERONIKA
1 58261U 23174F 24067.14587794 .00014653 00000-0 74873-3 0 9994
2 58261 97.4705 143.1860 0012490 236.4588 123.5453 15.16713048 18223
KAFASAT
1 58317U 23174BP 24067.14282868 .00018317 00000-0 87891-3 0 9995
2 58317 97.4653 143.4126 0011815 213.8975 146.1505 15.18868828 18244
ENSO
1 58470U 23185J 24067.18021067 .00011992 00000-0 56874-3 0 9992
2 58470 97.4399 135.2229 0012386 276.4551 83.5273 15.19365116 14631
EIRSAT-1
1 58472U 23185L 24067.17717031 .00012056 00000-0 56913-3 0 9992
2 58472 97.4393 135.2165 0012176 277.4250 82.5601 15.19526788 14638
SO-121
1 58567U 23174CY 24066.19021079 .00032459 00000-0 15213-2 0 9992
2 58567 97.4661 142.4078 0014342 228.7148 131.2853 15.19531687 18095
Clark sat-1 (AMBITIOUS)
1 58613U 98067WE 24067.11492651 .00205916 00000-0 15488-2 0 9992
2 58613 51.6331 95.4702 0009359 16.9472 343.1837 15.71325551 12496
BeliefSat-0
1 58695U 24001B 24066.98769483 .00453495 50487-4 77651-3 0 9999
2 58695 9.6611 273.8184 0007625 323.2369 36.7324 16.00708667 10444
/EX
1
0
08 Mar '24
The following satellite has been removed from this week's AMSAT-NA TLE distribution:
CUBEL-1 NORAD Cat ID 49017 Decayed from orbit on or about 06 February 2024
1
0
01 Mar '24
The following satellite has been removed from this week's AMSAT-NA TLE distribution:
IT-SPINS NORAD Cat ID 49017 Decayed from orbit on or about 25 February 2024
1
0
SB KEPS @ AMSAT $ORB24061.1
2Line Orbital Elements 24061.AMSAT
QST de W1STR
AMSAT Orbital Elements for Amateur Satellites in TLE Format
>From Orbital Analysis Office
New England Sci-Tech STEM Education Center
Natick, MA March 01, 2024
To all radio amateurs
These element sets describe the orbits of various satellites
in use by the amateur radio community. For details see:
www.amsat.org/keplerian-elements-formats/
A daily update of element sets is available at:
www.amsat.org/tle/daily-bulletin.txt
or without bulletin text:
www.amsat.org/tle/dailytle.txt
AO-07
1 07530U 74089B 24060.86046145 -.00000033 00000-0 85134-4 0 9991
2 07530 101.9746 54.5119 0011916 291.8373 131.6963 12.53672616255708
UO-11
1 14781U 84021B 24060.50738919 .00001731 00000-0 20332-3 0 9995
2 14781 97.6932 33.1704 0009805 77.8433 282.3881 14.86114172132341
AO-16
1 20439U 90005D 24060.58512828 .00000225 00000-0 98700-4 0 9990
2 20439 98.9006 62.6724 0010992 164.4775 309.6791 14.33291280782021
LO-19
1 20442U 90005G 24060.47690767 .00000254 00000-0 10883-3 0 9998
2 20442 98.8758 47.9317 0012376 140.3495 219.8595 14.33448661782203
AO-27
1 22825U 93061C 24060.42054697 .00000141 00000-0 71749-4 0 9995
2 22825 98.8049 111.9879 0009075 42.9422 317.2466 14.30433762587067
IO-26
1 22826U 93061D 24060.70755814 .00000155 00000-0 76696-4 0 9997
2 22826 98.7995 112.1402 0009347 28.0583 332.1101 14.30808666587631
FO-29
1 24278U 96046B 24060.87331965 .00000019 00000-0 52045-4 0 9992
2 24278 98.5693 9.7815 0351103 108.7816 255.1752 13.53173549360039
NOAA-15
1 25338U 98030A 24060.80157052 .00000212 00000-0 10601-3 0 9997
2 25338 98.5818 90.1338 0009245 282.3753 77.6392 14.26503359341983
GO-32
1 25397U 98043D 24060.89178471 .00000152 00000-0 86296-4 0 9990
2 25397 98.9083 26.0794 0002340 101.4248 258.7193 14.23993072332229
ISS
1 25544U 98067A 24060.93759946 .00018902 00000-0 34409-3 0 9997
2 25544 51.6415 131.8511 0006182 310.6147 221.3237 15.49509251441766
NO-44
1 26931U 01043C 24060.81863486 .00000225 00000-0 11652-3 0 9992
2 26931 67.0492 251.4934 0005233 276.2582 83.7923 14.31133749170606
SO-50
1 27607U 02058C 24060.58596260 .00002179 00000-0 31405-3 0 9995
2 27607 64.5551 195.2009 0037500 159.9250 200.3339 14.78407351140265
CO-55
1 27844U 03031E 24060.61047211 .00000470 00000-0 22773-3 0 9991
2 27844 98.6804 69.1523 0010915 99.1010 261.1404 14.23098431 72343
CO-57
1 27848U 03031J 24059.94017458 .00000401 00000-0 19909-3 0 9990
2 27848 98.6836 68.7947 0010725 114.9753 245.2540 14.22563211 72050
RS-22
1 27939U 03042A 24060.83444271 .00001582 00000-0 27576-3 0 9990
2 27939 98.2740 215.4566 0012918 46.3534 61.4717 14.69412166 92363
NOAA-18
1 28654U 05018A 24060.81053113 .00000241 00000-0 15267-3 0 9994
2 28654 98.8822 138.6560 0014239 14.6915 345.4669 14.13133878967950
CO-58
1 28895U 05043F 24060.81745220 .00002019 00000-0 36873-3 0 9997
2 28895 98.1825 196.6621 0015537 343.3049 16.7641 14.66978326978792
CO-65
1 32785U 08021C 24060.85731299 .00005852 00000-0 53788-3 0 9996
2 32785 97.7434 27.3078 0010391 337.6189 22.4577 14.95139547859354
AAUSAT2
1 32788U 08021F 24060.50123293 .00015584 00000-0 91071-3 0 9990
2 32788 97.5881 40.9462 0006373 166.8504 193.2893 15.11963967861875
CO-66
1 32791U 08021J 24060.44783238 .00007934 00000-0 62261-3 0 9997
2 32791 97.6855 32.5142 0004543 311.4790 48.6043 15.01194819860190
